[[{"header":{"parameterUnit":"m.s-1","parameterCategory":1,"la1":30.2991,"la2":30.254,"lo1":-89.0895,"lo2":-89.0444,"dy":0.0017,"dx":0.0017,"nx":28,"ny":28,"refTime":"2024-06-10T03:00:00:Z","depth":0,"parameterNumber":2,"parameterNumberName":"U-component_of_WINDS"},"data":[0,0,0,0,0,0,0,0,0,0,0,0,0,0,0,0,0,0,0,0,0,0,0,0,0,0,0,0,0,0,0,0,0,0,0,0,0,0,0,0,0,0,0,0,0,0,0,0,0,0,0,0,0,0,0,0,0,0,-0.9926,-0.9925,0,-0.9843,-0.9842,-0.9841,-0.9755,-0.9754,-0.9753,-0.9752,-0.9671,-0.967,-0.9669,0,0,0,0,0,0,0,0,0,0,0,0,0,-1.0016,-1.0015,-0.9926,-0.9925,-0.9924,-0.9843,-0.9842,-0.9841,-0.9755,-0.9754,-0.9753,-0.9751,-0.9671,-0.967,-0.9668,0,0,0,0,0,0,0,0,0,0,0,0,0,-0.9959,-1.0014,-0.9926,-0.9872,-0.9866,-0.9843,-0.9842,-0.984,-0.9756,-0.9754,-0.9752,-0.9751,-0.9671,-0.967,-0.9668,-0.9694,0,0,-0.9663,-0.9663,0,0,0,0,0,0,0,0,-0.9963,-0.9956,-0.9881,-0.9875,-0.9869,-0.9807,-0.9843,-0.9791,-0.9756,-0.9798,-0.9752,-0.975,-0.9718,-0.9712,-0.9701,-0.969,-0.9687,-0.9663,-0.9662,-0.9662,-0.9661,0,0,0,0,0,0,0,-0.9967,-0.9959,-0.9893,-0.988,-0.9872,-0.9853,-0.9843,-0.9833,-0.9769,-0.9794,-0.9788,-0.9779,-0.9714,-0.9703,-0.9698,-0.9685,-0.9663,-0.9662,-0.9661,-0.966,-0.9694,-0.9696,0,0,0,0,0,0,-0.9978,-0.9963,-0.9896,-0.9891,-0.9912,-0.9853,-0.9841,-0.9829,-0.9769,-0.9758,-0.978,-0.9775,-0.9706,-0.97,-0.9695,-0.9723,-0.9662,-0.966,-0.9659,-0.9692,-0.9694,-0.9696,0,0,0,0,0,0,-0.998,-0.9973,-0.9899,-0.9925,-0.9914,-0.9853,-0.984,-0.9828,-0.9816,-0.9758,-0.9747,-0.978,-0.9704,-0.9697,-0.9695,-0.9719,-0.9659,-0.9658,-0.969,-0.9693,-0.9695,-0.9778,0,0,0,0,0,0,-0.9983,-0.9974,-0.9982,-0.9926,-0.9913,-0.99,-0.9841,-0.9828,-0.9813,-0.9806,-0.9755,-0.9745,-0.9703,-0.9698,-0.9694,-0.9715,-0.9657,-0.9688,-0.9691,-0.9695,-0.9773,-0.9783,-0.9792,0,0,0,0,0,-0.9987,-1.0009,-0.9983,-0.9976,-0.9922,-0.9901,-0.9894,-0.9844,-0.9816,-0.9824,-0.9787,-0.9746,-0.9716,-0.9698,-0.9693,-0.9715,-0.9686,-0.969,-0.9694,-0.9768,-0.9781,-0.9792,0,0,0,0,0,0,-1.0071,-1.0001,-0.9971,-0.9975,-0.9945,-0.9886,-0.9896,-0.9858,-0.9836,-0.983,-0.977,-0.9759,-0.9764,-0.9739,-0.972,-0.9737,-0.9696,-0.9699,-0.9754,-0.9765,-0.9775,-0.9782,-0.9655,0,0,0,0,0,-1.009,-1.0078,-1.0017,-1.0027,-1.0013,-0.9957,-0.9946,-0.991,-0.9877,-0.9864,-0.9826,-0.9796,-0.978,-0.9771,-0.9753,-0.9768,-0.9757,-0.978,-0.979,-0.9798,-0.9802,-0.9811,-0.9821,-0.971,-0.971,-0.971,0,0,-1.013,-1.009,-1.0086,-1.0043,-1.0015,-1.0006,-0.9947,-0.9939,-0.9932,-0.9863,-0.9859,-0.983,-0.9793,-0.98,-0.9801,-0.9779,-0.983,-0.9804,-0.981,-0.981,-0.9816,-0.9827,-0.9836,-0.9713,-0.9712,-0.9712,0,0,-1.0197,-1.0164,-1.017,-1.0143,-1.0101,-1.0064,-1.0065,-1.0012,-0.9991,-0.9985,-0.9934,-0.9925,-0.9898,-0.9874,-0.9859,-0.9918,-0.9881,-0.9914,-0.9965,-0.9974,-0.9982,-0.999,-1.0013,-1.0022,-0.9918,-0.9918,-0.9918,0,-1.0252,-1.0234,-1.0178,-1.0173,-1.0157,-1.0093,-1.0099,-1.0076,-1.0031,-1.0022,-0.9997,-0.9963,-0.9933,-0.9935,-0.995,-0.9939,-0.994,-0.992,-0.9985,-0.9992,-0.9999,-1.002,-1.0029,-0.9923,-0.9922,-0.9922,-0.9921,0,-1.0304,-1.0293,-1.0303,-1.026,-1.0245,-1.0246,-1.0192,-1.0183,-1.0149,-1.0115,-1.0111,-1.0073,-1.0047,-1.0045,-1.0011,-1.0042,-1.003,-0.9996,-0.9953,-1.0015,-1.0034,-1.0042,-0.9929,-0.9927,-0.9926,-0.9925,0,0,-1.0423,-1.035,-1.0354,-1.0335,-1.0284,-1.0275,-1.0274,-1.0247,-1.0242,-1.0213,-1.0213,-1.0192,-1.016,-1.0143,-1.0106,-1.0114,-1.0166,-1.0079,-1.0077,-1.0098,-1.0201,-1.0228,-1.0239,-1.014,-1.0141,-1.0142,-1.0205,0,-1.0483,-1.0476,-1.0426,-1.0434,-1.0425,-1.0364,-1.0363,-1.0333,-1.0301,-1.029,-1.0255,-1.0242,-1.02,-1.019,-1.0194,-1.0159,-1.0186,-1.0153,-1.0141,-1.0142,-1.0155,-1.0248,-1.0277,-1.0338,-1.0212,-1.0213,-1.0214,0,-1.0553,-1.0528,-1.0535,-1.0485,-1.0479,-1.0479,-1.0452,-1.044,-1.0406,-1.0382,-1.0363,-1.0322,-1.0319,-1.0278,-1.0275,-1.0254,-1.0246,-1.0228,-1.0229,-1.0228,-1.0183,-1.0252,-1.0355,-1.0366,-1.0225,-1.0224,-1.0223,0,-1.0642,-1.0609,-1.061,-1.0595,-1.0536,-1.0538,-1.0514,-1.0478,-1.0465,-1.0442,-1.0434,-1.0411,-1.0399,-1.0383,-1.0337,-1.031,-1.034,-1.0294,-1.0323,-1.0324,-1.0333,-1.0334,-1.044,-1.0325,-1.0325,-1.0325,-1.0324,0,-1.0715,-1.0723,-1.0649,-1.065,-1.0657,-1.06,-1.0609,-1.0579,-1.0547,-1.0543,-1.0488,-1.0486,-1.0424,-1.0415,-1.0379,-1.0383,-1.0378,-1.0361,-1.0351,-1.0367,-1.0369,-1.0362,-1.0358,-1.0327,-1.0326,-1.0326,-1.0326,0,-1.0816,-1.0767,-1.0764,-1.0709,-1.0695,-1.0703,-1.0657,-1.0656,-1.0621,-1.0616,-1.0611,-1.0557,-1.0544,-1.0496,-1.047,-1.0446,-1.0463,-1.0444,-1.0475,-1.0469,-1.0501,-1.05,-1.0608,-1.062,-1.0496,-1.0497,-1.0498,0,-1.0868,-1.0872,-1.0817,-1.0809,-1.0788,-1.0776,-1.0763,-1.0707,-1.0697,-1.0658,-1.0663,-1.0645,-1.0627,-1.0609,-1.0568,-1.0549,-1.053,-1.0569,-1.0527,-1.0543,-1.0534,-1.0535,-1.0536,-1.0579,-1.0581,-1.0582,-1.0583,0,-1.0965,-1.094,-1.0923,-1.0898,-1.0884,-1.0862,-1.0837,-1.0834,-1.0772,-1.0763,-1.0748,-1.0735,-1.0709,-1.0692,-1.0667,-1.0644,-1.0605,-1.0597,-1.0603,-1.0619,-1.0638,-1.0631,-1.0502,-1.0595,-1.0594,-1.0593,-1.0592,-1.0592,-1.1044,-1.1045,-1.1007,-1.0991,-1.0966,-1.0944,-1.0941,-1.0905,-1.0891,-1.0865,-1.0833,-1.0823,-1.079,-1.0751,-1.0731,-1.0724,-1.0702,-1.071,-1.0712,-1.0716,-1.0724,-1.0638,-1.0718,-1.0718,-1.0718,-1.0717,-1.0717,0,-1.114,-1.1113,-1.1098,-1.1064,-1.1052,-1.1013,-1.0984,-1.0977,-1.0968,-1.0939,-1.0923,-1.0907,-1.0891,-1.0849,-1.0829,-1.0832,-1.0813,-1.0829,-1.0829,-1.0825,-1.0744,-1.0741,-1.0844,-1.0844,-1.0844,-1.0844,-1.0844,-1.0844,-1.1189,-1.119,-1.1162,-1.1151,-1.1123,-1.1112,-1.1099,-1.1079,-1.1056,-1.104,-1.1026,-1.0998,-1.0965,-1.0943,-1.0927,-1.0916,-1.0912,-1.0934,-1.0917,-1.0842,-1.083,-1.0819,-1.0817,-1.0933,-1.0933,-1.0999,-1.1,-1.1]},{"header":{"parameterUnit":"m.s-1","parameterCategory":1,"la1":30.2991,"la2":30.254,"lo1":-89.0895,"lo2":-89.0444,"dy":0.0017,"dx":0.0017,"nx":28,"ny":28,"refTime":"2024-06-10T03:00:00:Z","depth":0,"parameterNumber":3,"parameterNumberName":"V-component_of_WINDS"},"data":[0,0,0,0,0,0,0,0,0,0,0,0,0,0,0,0,0,0,0,0,0,0,0,0,0,0,0,0,0,0,0,0,0,0,0,0,0,0,0,0,0,0,0,0,0,0,0,0,0,0,0,0,0,0,0,0,0,0,-0.8922,-0.8922,0,-0.8883,-0.8882,-0.8882,-0.8859,-0.8859,-0.8859,-0.8858,-0.8819,-0.8818,-0.8817,0,0,0,0,0,0,0,0,0,0,0,0,0,-0.8976,-0.8975,-0.8922,-0.8921,-0.8921,-0.8883,-0.8882,-0.8882,-0.8859,-0.8859,-0.8859,-0.8858,-0.8819,-0.8818,-0.8817,0,0,0,0,0,0,0,0,0,0,0,0,0,-0.8947,-0.8975,-0.8922,-0.8905,-0.8903,-0.8883,-0.8882,-0.8882,-0.8859,-0.8859,-0.8858,-0.8858,-0.8819,-0.8818,-0.8816,-0.8811,0,0,-0.8812,-0.8811,0,0,0,0,0,0,0,0,-0.8948,-0.8945,-0.8908,-0.8906,-0.8904,-0.8876,-0.8887,-0.8858,-0.8859,-0.8876,-0.8858,-0.8858,-0.8838,-0.8835,-0.8828,-0.8809,-0.8807,-0.8812,-0.8811,-0.881,-0.881,0,0,0,0,0,0,0,-0.895,-0.8946,-0.8906,-0.8907,-0.8905,-0.8899,-0.8895,-0.8881,-0.8858,-0.8874,-0.8872,-0.8868,-0.8836,-0.8829,-0.8827,-0.8806,-0.8812,-0.8811,-0.881,-0.8809,-0.8781,-0.8781,0,0,0,0,0,0,-0.8955,-0.8948,-0.8908,-0.8905,-0.8926,-0.8898,-0.8893,-0.8885,-0.8858,-0.8854,-0.8868,-0.8867,-0.8832,-0.8828,-0.8825,-0.8817,-0.881,-0.8809,-0.8808,-0.8781,-0.8781,-0.8781,0,0,0,0,0,0,-0.8956,-0.8952,-0.8909,-0.8926,-0.892,-0.8897,-0.8888,-0.8884,-0.8877,-0.8854,-0.8849,-0.8865,-0.8831,-0.8827,-0.8814,-0.8815,-0.8808,-0.8807,-0.878,-0.8781,-0.8781,-0.88,0,0,0,0,0,0,-0.8958,-0.8952,-0.895,-0.8926,-0.8919,-0.8899,-0.8888,-0.8883,-0.8874,-0.8872,-0.8849,-0.8845,-0.8831,-0.8817,-0.8813,-0.8813,-0.8806,-0.878,-0.878,-0.8781,-0.8799,-0.88,-0.8802,0,0,0,0,0,-0.896,-0.8957,-0.895,-0.8945,-0.8916,-0.8899,-0.8896,-0.8879,-0.8874,-0.8872,-0.8857,-0.8846,-0.8815,-0.8816,-0.8811,-0.8811,-0.878,-0.878,-0.8781,-0.8798,-0.88,-0.8802,0,0,0,0,0,0,-0.8981,-0.8953,-0.8946,-0.8935,-0.892,-0.8896,-0.8892,-0.8881,-0.8867,-0.8866,-0.8846,-0.8841,-0.883,-0.8819,-0.882,-0.8804,-0.8797,-0.8796,-0.8811,-0.8813,-0.8814,-0.8818,-0.8805,0,0,0,0,0,-0.8985,-0.8974,-0.895,-0.8942,-0.8935,-0.8915,-0.8907,-0.8895,-0.8879,-0.8873,-0.8857,-0.8841,-0.8828,-0.882,-0.8806,-0.8797,-0.8792,-0.8794,-0.8796,-0.8797,-0.8797,-0.8791,-0.8792,-0.8782,-0.8782,-0.8782,0,0,-0.8992,-0.8975,-0.8969,-0.8946,-0.8933,-0.8922,-0.891,-0.8898,-0.889,-0.8871,-0.8858,-0.8846,-0.8827,-0.8816,-0.881,-0.8806,-0.8799,-0.8798,-0.8799,-0.8798,-0.8792,-0.8793,-0.8794,-0.8782,-0.8782,-0.8782,0,0,-0.8999,-0.8985,-0.8977,-0.8965,-0.8945,-0.8931,-0.893,-0.8907,-0.8898,-0.8885,-0.887,-0.886,-0.8838,-0.8825,-0.8816,-0.8818,-0.8807,-0.8814,-0.8822,-0.8816,-0.8817,-0.8818,-0.8819,-0.8819,-0.8814,-0.8814,-0.8814,0,-0.901,-0.8993,-0.8975,-0.8964,-0.8955,-0.8937,-0.8929,-0.8917,-0.8894,-0.8888,-0.8884,-0.8855,-0.8842,-0.8827,-0.8828,-0.8821,-0.8818,-0.8817,-0.8818,-0.8819,-0.8819,-0.882,-0.882,-0.8815,-0.8814,-0.8814,-0.8814,0,-0.9007,-0.8996,-0.8992,-0.897,-0.896,-0.8951,-0.8932,-0.8924,-0.8913,-0.89,-0.8886,-0.8869,-0.8852,-0.8847,-0.8837,-0.8832,-0.883,-0.8822,-0.8815,-0.8822,-0.8822,-0.8822,-0.8816,-0.8816,-0.8815,-0.8815,0,0,-0.9027,-0.8996,-0.8994,-0.8985,-0.8962,-0.8952,-0.8942,-0.8925,-0.8919,-0.8903,-0.8895,-0.8876,-0.8869,-0.8858,-0.8846,-0.8841,-0.8844,-0.8834,-0.8833,-0.8837,-0.8838,-0.8844,-0.8845,-0.8837,-0.8837,-0.8837,-0.884,0,-0.9031,-0.9013,-0.8996,-0.8984,-0.8973,-0.8955,-0.8947,-0.8932,-0.8919,-0.8908,-0.8894,-0.8881,-0.8872,-0.8866,-0.886,-0.8845,-0.8844,-0.8845,-0.8829,-0.8829,-0.8835,-0.8845,-0.8851,-0.8855,-0.884,-0.884,-0.884,0,-0.9033,-0.9019,-0.9005,-0.8984,-0.8978,-0.8971,-0.8954,-0.8944,-0.8926,-0.8917,-0.8905,-0.8892,-0.8881,-0.8875,-0.8859,-0.8859,-0.8852,-0.8844,-0.8843,-0.8842,-0.8835,-0.8844,-0.8855,-0.8856,-0.884,-0.884,-0.884,0,-0.905,-0.9027,-0.9016,-0.9008,-0.8982,-0.8977,-0.8966,-0.8948,-0.8939,-0.8924,-0.8918,-0.8902,-0.8894,-0.8882,-0.8865,-0.8862,-0.8851,-0.8843,-0.8843,-0.8844,-0.8842,-0.8843,-0.8853,-0.8837,-0.8837,-0.8837,-0.8837,0,-0.9056,-0.9049,-0.9023,-0.9016,-0.9007,-0.8988,-0.898,-0.8967,-0.8951,-0.8942,-0.8926,-0.8917,-0.8895,-0.8884,-0.887,-0.886,-0.8856,-0.8848,-0.8845,-0.885,-0.8851,-0.8845,-0.8845,-0.8837,-0.8837,-0.8837,-0.8837,0,-0.9073,-0.9055,-0.9042,-0.9019,-0.9013,-0.9007,-0.8987,-0.898,-0.8966,-0.8954,-0.895,-0.8929,-0.8915,-0.8897,-0.8877,-0.8868,-0.8859,-0.8853,-0.8865,-0.8863,-0.8864,-0.8865,-0.8872,-0.8872,-0.8855,-0.8855,-0.8856,0,-0.9079,-0.9073,-0.9049,-0.9041,-0.9031,-0.9019,-0.9009,-0.899,-0.8981,-0.896,-0.8956,-0.894,-0.8927,-0.8905,-0.8888,-0.8873,-0.8867,-0.887,-0.8865,-0.887,-0.8868,-0.8868,-0.8868,-0.8872,-0.8873,-0.8873,-0.8873,0,-0.9091,-0.9082,-0.907,-0.9054,-0.9043,-0.903,-0.9015,-0.901,-0.8988,-0.8978,-0.8964,-0.8954,-0.8933,-0.8918,-0.8901,-0.8889,-0.8877,-0.8875,-0.8874,-0.888,-0.8887,-0.8883,-0.8869,-0.8875,-0.8875,-0.8875,-0.8874,-0.8874,-0.9103,-0.9096,-0.9079,-0.9065,-0.9052,-0.9039,-0.9031,-0.9016,-0.9004,-0.8986,-0.8975,-0.8961,-0.8943,-0.8919,-0.8908,-0.8896,-0.8892,-0.8891,-0.8891,-0.8891,-0.8893,-0.8888,-0.8893,-0.8893,-0.8893,-0.8893,-0.8892,0,-0.9114,-0.9102,-0.9089,-0.907,-0.9059,-0.9049,-0.9033,-0.9024,-0.9012,-0.8997,-0.8984,-0.8967,-0.8952,-0.8934,-0.8918,-0.8912,-0.8906,-0.8909,-0.8909,-0.8907,-0.8897,-0.89,-0.8913,-0.8913,-0.8913,-0.8913,-0.8913,-0.8913,-0.9119,-0.9108,-0.9098,-0.908,-0.9067,-0.9054,-0.9045,-0.9033,-0.9021,-0.9003,-0.899,-0.8978,-0.8961,-0.8944,-0.893,-0.8925,-0.892,-0.8924,-0.8917,-0.8909,-0.8907,-0.8905,-0.8908,-0.8923,-0.8923,-0.8928,-0.8928,-0.8928]}]]